Topeka Forbes, KS

5:04 PM CDT on July 20, 2017 (GMT -0500)
Forbes

Weather History for KFOE - November, 2012

Change the Weather History Date:

Sunday, November 4, 2012

  Actual Average Record
Temperature  
Mean Temperature 46 °F -  
Max Temperature 64 °F 55 °F 82 °F (1978)
Min Temperature 28 °F 34 °F 9 °F (1991)
Degree Days  
Heating Degree Days 19    
Moisture  
Dew Point 33 °F    
Average Humidity 62    
Maximum Humidity 92    
Minimum Humidity 34    
Precipitation  
Precipitation 0.00 in - - ()
Sea Level Pressure  
Sea Level Pressure 30.13 in    
Wind  
Wind Speed 4 mph (South)    
Max Wind Speed 15 mph    
Max Gust Speed 22 mph    
Visibility 10 miles    
Events      
Averages and records for this station are not official NWS values.
T = Trace of Precipitation, MM = Missing Value Source: NWS Daily Summary

Daily Weather History Graph

Daily Weather History Graph

Search for Another Location

Airport or City:

Trip Planner

Search our weather history database for the weather conditions in past years. The results will help you decide how hot, cold, wet, or windy it might be!

Date:

Astronomy

Nov. 04, 2012 Rise Set
Actual Time 6:53 AM CST 5:18 PM CST
Civil Twilight 6:25 AM CST 5:45 PM CST
Nautical Twilight 5:54 AM CST 6:17 PM CST
Astronomical Twilight 5:23 AM CST 6:48 PM CST
Moon 9:57 PM CST (11/4) 11:37 AM CST (11/4)
Length of Visible Light 11h 20m
Length of Day
10h 24m
Waning Gibbous, 72% of the Moon is Illuminated
Nov 4
Waning Gibbous
Nov 6
Last Quarter
Nov 13
New
Nov 20
First Quarter
Nov 28
Full

Hourly Weather History & Observations

Time (CST) Temp. Windchill Dew Point Humidity Pressure Visibility Wind Dir Wind Speed Gust Speed Precip Events Conditions
12:53 AM 37.0 °F - 30.0 °F 76% 30.22 in 10.0 mi Calm Calm - N/A   Clear
1:53 AM 32.0 °F - 28.0 °F 85% 30.22 in 10.0 mi Calm Calm - N/A   Clear
1:53 AM 32.0 °F - 28.0 °F 85% 30.20 in 10.0 mi Calm Calm - N/A   Clear
2:53 AM 30.9 °F - 28.0 °F 89% 30.19 in 10.0 mi Calm Calm - N/A   Clear
3:53 AM 30.9 °F - 27.0 °F 85% 30.20 in 10.0 mi Calm Calm - N/A   Partly Cloudy
4:53 AM 28.9 °F - 27.0 °F 92% 30.20 in 10.0 mi Calm Calm - N/A   Partly Cloudy
5:53 AM 28.9 °F - 27.0 °F 92% 30.22 in 10.0 mi Calm Calm - N/A   Scattered Clouds
6:53 AM 32.0 °F - 28.9 °F 88% 30.22 in 10.0 mi Calm Calm - N/A   Clear
7:53 AM 34.0 °F - 30.0 °F 85% 30.24 in 10.0 mi Calm Calm - N/A   Partly Cloudy
8:53 AM 41.0 °F 39.0 °F 35.1 °F 79% 30.23 in 10.0 mi ESE 3.5 mph - N/A   Mostly Cloudy
9:53 AM 51.1 °F - 37.0 °F 59% 30.21 in 10.0 mi South 10.4 mph - N/A   Partly Cloudy
10:53 AM 55.9 °F - 35.1 °F 45% 30.19 in 10.0 mi SSW 9.2 mph - N/A   Clear
11:53 AM 60.1 °F - 36.0 °F 41% 30.15 in 10.0 mi SSE 11.5 mph - N/A   Clear
12:53 PM 62.1 °F - 36.0 °F 38% 30.11 in 10.0 mi South 9.2 mph - N/A   Clear
1:53 PM 64.0 °F - 36.0 °F 35% 30.08 in 10.0 mi South 11.5 mph 17.3 mph N/A   Clear
2:53 PM 64.9 °F - 36.0 °F 34% 30.04 in 10.0 mi South 15.0 mph 20.7 mph N/A   Clear
3:53 PM 64.0 °F - 35.1 °F 34% 30.03 in 10.0 mi South 13.8 mph - N/A   Clear
4:53 PM 62.1 °F - 36.0 °F 38% 30.03 in 10.0 mi South 9.2 mph - N/A   Clear
5:53 PM 55.9 °F - 36.0 °F 47% 30.04 in 10.0 mi SSE 6.9 mph - N/A   Clear
6:53 PM 55.9 °F - 37.9 °F 51% 30.04 in 10.0 mi SSE 9.2 mph - N/A   Scattered Clouds
7:53 PM 55.9 °F - 39.0 °F 53% 30.03 in 10.0 mi South 6.9 mph - N/A   Overcast
8:53 PM 57.9 °F - 36.0 °F 44% 30.05 in 10.0 mi West 15.0 mph 21.9 mph N/A   Overcast
9:53 PM 57.0 °F - 37.9 °F 49% 30.05 in 10.0 mi North 6.9 mph - N/A   Overcast
10:53 PM 55.0 °F - 39.9 °F 57% 30.03 in 10.0 mi SSE 3.5 mph - 0.00 in   Overcast